dotoritv.co.kr alexa rank chart, dotoritv.co.kr alexa rank daily changes

dotoritv.co.kr alexa rank chart, dotoritv.co.kr alexa rank daily changes

dotoritv.co.kr
Actual rank:
53 832

RANK HISTORY

Date Rank Diff
2017/05/28 53 832 +239
2017/05/27 53 593 -35
2017/05/26 53 628 +1 627
2017/05/25 52 001 +1 591
2017/05/24 50 410 +1 031
2017/05/23 49 379 +360
2017/05/22 49 019 +676
2017/05/21 48 343 +394
2017/05/20 47 949 +1 411
2017/05/19 46 538 -483
2017/05/18 47 021 +443
2017/05/17 46 578 +944
2017/05/16 45 634 -2 202
2017/05/15 47 836 -1 548
2017/05/14 49 384 -1 485
2017/05/13 50 869 -1 815
2017/05/12 52 684 +429
2017/05/11 52 255 -230
2017/05/10 52 485 -715
2017/05/09 53 200 -1 025
2017/05/08 54 225 -444
2017/05/07 54 669 +187
2017/05/06 54 482 +1 143
2017/05/05 53 339 -99
2017/05/04 53 438 +1 132
2017/05/03 52 306 +1 192
2017/05/02 51 114 +180
2017/05/01 50 934 -1 230
2017/04/30 52 164 +683
2017/04/29 51 481 -1 008
2017/04/28 52 489 +852
2017/04/27 51 637 +1 218
2017/04/26 50 419 -750
2017/04/25 51 169 -708
2017/04/24 51 877 +294
2017/04/23 51 583 -178
2017/04/22 51 761 -726
2017/04/21 52 487 +389
2017/04/20 52 098 -475
2017/04/19 52 573 -175
2017/04/18 52 748 +215
2017/04/17 52 533 -1 509
2017/04/16 54 042 +141
2017/04/15 53 901 +221
2017/04/14 53 680 +1 009
2017/04/13 52 671 -75
2017/04/12 52 746 -1 038
2017/04/11 53 784 -926
2017/04/10 54 710 -862
2017/04/09 55 572 +742
2017/04/08 54 830 -621
2017/04/07 55 451 -729
2017/04/06 56 180 -897
2017/04/05 57 077 -395
2017/04/04 57 472 -1 573
2017/04/03 59 045 -2 470
2017/04/02 61 515 +309
2017/04/01 61 206 +5
2017/03/31 61 201 +1 124
2017/03/30 60 077 -1 052
2017/03/29 61 129

WIDGET FOR YOUR SITE

DOMAINS WITH THE NEAREST RANK

Domain Rank
vidnice.space 53 827
itrealstory.com 53 828
couchbase.com 53 829
pouyasazan.org 53 830
rac.gov.in 53 831
dotoritv.co.kr 53 832
vapenw.com 53 833
monitor.hr 53 834
ntrqq.net 53 835
airbnb.no 53 836
revivelink.com 53 837

DOMAINS WITH THE NEAREST RANK BY TLD .co.kr

Domain Rank
playstation.co.kr 52 455
mobilians.co.kr 52 707
smartfile.co.kr 52 820
syrup.co.kr 52 932
appstory.co.kr 53 215
dotoritv.co.kr 53 832
lgservice.co.kr 53 927
postman.co.kr 54 067
eleparts.co.kr 54 627
oliveyoung.co.kr 55 014
i-boss.co.kr 55 721